When you browse on this site, cookies collect data to enhance your experience and personalize the content and advertising you see.
Visit our Privacy Policy to learn more. By continuing to use the site, you agree to this use of cookies and data.
  • In Spain
  • List of Countries
  • For 7 days
  • Water Temperature
  • Satellite Maps
  • Weather Map
  • Weather Widgets
  • user-avatar
    Login

    Hourly Weather Carevo

    Today, 20 March, Wednesday

    Time Temperature Precipitation Wind Pressure Humidity
    00:00 +1°C° 0 mm 2 mps 749 mmHg 98%
    01:00 +1°C° 0 mm 2 mps 749 mmHg 98%
    02:00 +1°C° 0 mm 2 mps 749 mmHg 98%
    03:00 +1°C° 0 mm 2 mps 749 mmHg 98%
    04:00 +1°C° 0 mm 2 mps 749 mmHg 97%
    05:00 +1°C° 0 mm 2 mps 749 mmHg 96%
    06:00 -1°C° 0 mm 2 mps 749 mmHg 95%
    07:00 +1°C° 0 mm 2 mps 749 mmHg 95%
    08:00 +1°C° 0 mm 2 mps 749 mmHg 96%
    09:00 +1°C° 0 mm 2 mps 749 mmHg 96%
    10:00 +2°C° 0 mm 2 mps 750 mmHg 96%
    11:00 +2°C° 0 mm 2 mps 750 mmHg 97%
    12:00 +2°C° 0 mm 2 mps 750 mmHg 97%
    13:00 +2°C° 0.1 mm 2 mps 750 mmHg 96%
    14:00 +2°C° 0.1 mm 2 mps 750 mmHg 96%
    15:00 +2°C° 0.1 mm 2 mps 750 mmHg 95%
    16:00 +2°C° 0 mm 2 mps 750 mmHg 95%
    17:00 +2°C° 0 mm 2 mps 750 mmHg 95%
    18:00 +1°C° 0 mm 2 mps 750 mmHg 94%
    19:00 +1°C° 0 mm 2 mps 750 mmHg 93%
    20:00 +1°C° 0 mm 2 mps 750 mmHg 91%
    21:00 -1°C° 0 mm 2 mps 751 mmHg 90%
    22:00 -1°C° 0 mm 2 mps 750 mmHg 90%
    23:00 -1°C° 0 mm 2 mps 750 mmHg 90%

    Tomorrow, 21 March, Thursday

    Time Temperature Precipitation Wind Pressure Humidity
    00:00 -2°C° 0 mm 2 mps 750 mmHg 91%
    01:00 -2°C° 0 mm 2 mps 750 mmHg 91%
    02:00 -3°C° 0 mm 2 mps 750 mmHg 90%
    03:00 -3°C° 0 mm 2 mps 750 mmHg 90%
    04:00 -3°C° 0 mm 2 mps 749 mmHg 89%
    05:00 -3°C° 0 mm 2 mps 749 mmHg 88%
    06:00 -3°C° 0 mm 2 mps 749 mmHg 87%
    07:00 -2°C° 0 mm 3 mps 748 mmHg 85%
    08:00 -3°C° 0 mm 4 mps 748 mmHg 84%
    09:00 -2°C° 0 mm 4 mps 748 mmHg 82%
    10:00 -2°C° 0.2 mm 4 mps 747 mmHg 85%
    11:00 -2°C° 0.2 mm 5 mps 747 mmHg 87%
    12:00 -1°C° 0.2 mm 5 mps 747 mmHg 90%
    13:00 -1°C° 0.2 mm 5 mps 746 mmHg 91%
    14:00 -1°C° 0.2 mm 4 mps 746 mmHg 92%
    15:00 -1°C° 0.2 mm 4 mps 746 mmHg 93%
    16:00 0°C° 0.1 mm 4 mps 746 mmHg 93%
    17:00 0°C° 0.1 mm 4 mps 746 mmHg 93%
    18:00 0°C° 0.1 mm 4 mps 746 mmHg 92%
    19:00 0°C° 0.1 mm 4 mps 746 mmHg 91%
    20:00 -1°C° 0.1 mm 4 mps 746 mmHg 89%
    21:00 -1°C° 0.1 mm 5 mps 747 mmHg 87%
    22:00 -2°C° 0 mm 4 mps 747 mmHg 88%
    23:00 -2°C° 0 mm 4 mps 747 mmHg 90%

    Day after tomorrow, 22 March, Friday

    Time Temperature Precipitation Wind Pressure Humidity
    00:00 -3°C° 0 mm 4 mps 747 mmHg 91%
    01:00 -2°C° 0 mm 3 mps 747 mmHg 91%
    02:00 -2°C° 0 mm 3 mps 747 mmHg 92%
    03:00 -2°C° 0 mm 3 mps 747 mmHg 92%
    04:00 -2°C° 0 mm 3 mps 747 mmHg 91%
    05:00 -2°C° 0 mm 2 mps 747 mmHg 91%
    06:00 -2°C° 0 mm 2 mps 747 mmHg 90%
    07:00 -1°C° 0 mm 3 mps 747 mmHg 90%
    08:00 -1°C° 0 mm 3 mps 747 mmHg 90%
    09:00 0°C° 0 mm 3 mps 747 mmHg 90%
    10:00 0°C° 0 mm 3 mps 746 mmHg 91%
    11:00 +1°C° 0 mm 3 mps 746 mmHg 91%
    12:00 +1°C° 0 mm 4 mps 745 mmHg 92%
    13:00 +1°C° 0.4 mm 4 mps 745 mmHg 93%
    14:00 0°C° 0.4 mm 4 mps 744 mmHg 94%
    15:00 0°C° 0.4 mm 4 mps 743 mmHg 95%
    16:00 0°C° 0.1 mm 4 mps 743 mmHg 95%
    17:00 0°C° 0.1 mm 4 mps 743 mmHg 96%
    18:00 +1°C° 0.1 mm 3 mps 743 mmHg 97%
    19:00 0°C° 0 mm 4 mps 743 mmHg 96%
    20:00 0°C° 0 mm 4 mps 744 mmHg 95%
    21:00 0°C° 0 mm 4 mps 744 mmHg 95%
    22:00 0°C° 0 mm 4 mps 744 mmHg 93%
    23:00 0°C° 0 mm 4 mps 744 mmHg 91%

    23 March, Saturday

    Time Temperature Precipitation Wind Pressure Humidity
    00:00 0°C° 0 mm 4 mps 744 mmHg 90%
    01:00 -1°C° 0 mm 4 mps 744 mmHg 90%
    02:00 -1°C° 0 mm 4 mps 744 mmHg 91%
    03:00 -2°C° 0 mm 4 mps 744 mmHg 91%
    04:00 -2°C° 0 mm 4 mps 744 mmHg 89%
    05:00 -3°C° 0 mm 4 mps 745 mmHg 88%
    06:00 -3°C° 0 mm 4 mps 745 mmHg 86%
    07:00 -3°C° 0 mm 4 mps 745 mmHg 83%
    08:00 -2°C° 0 mm 4 mps 745 mmHg 80%
    09:00 -2°C° 0 mm 5 mps 745 mmHg 78%
    10:00 -1°C° 0 mm 4 mps 745 mmHg 75%
    11:00 0°C° 0 mm 4 mps 745 mmHg 73%
    12:00 +1°C° 0 mm 4 mps 745 mmHg 71%
    13:00 +1°C° 0 mm 4 mps 745 mmHg 70%
    14:00 +3°C° 0 mm 3 mps 745 mmHg 68%
    15:00 +3°C° 0 mm 3 mps 744 mmHg 67%
    16:00 +3°C° 0 mm 3 mps 744 mmHg 69%
    17:00 +2°C° 0 mm 3 mps 743 mmHg 71%
    18:00 +3°C° 0 mm 2 mps 743 mmHg 73%
    19:00 +2°C° 0 mm 3 mps 742 mmHg 78%
    20:00 +1°C° 0 mm 4 mps 742 mmHg 83%
    21:00 +1°C° 0 mm 4 mps 742 mmHg 88%
    22:00 +2°C° 0.1 mm 5 mps 741 mmHg 90%
    23:00 +2°C° 0.1 mm 5 mps 740 mmHg 92%

    24 March, Sunday

    Time Temperature Precipitation Wind Pressure Humidity
    00:00 +2°C° 0.1 mm 6 mps 739 mmHg 95%
    01:00 +3°C° 0.2 mm 6 mps 739 mmHg 95%
    02:00 +3°C° 0.2 mm 6 mps 738 mmHg 95%
    03:00 +3°C° 0.2 mm 6 mps 738 mmHg 95%
    04:00 +2°C° 0.1 mm 6 mps 738 mmHg 93%
    05:00 +1°C° 0.1 mm 6 mps 738 mmHg 91%
    06:00 0°C° 0.1 mm 5 mps 739 mmHg 88%
    07:00 +1°C° 0 mm 6 mps 739 mmHg 84%
    08:00 +1°C° 0 mm 6 mps 739 mmHg 80%
    09:00 0°C° 0 mm 7 mps 740 mmHg 76%
    10:00 +2°C° 0 mm 7 mps 740 mmHg 66%
    11:00 +1°C° 0 mm 8 mps 740 mmHg 56%
    12:00 +2°C° 0 mm 9 mps 740 mmHg 47%
    13:00 +2°C° 0 mm 9 mps 739 mmHg 45%
    14:00 +2°C° 0 mm 9 mps 739 mmHg 44%
    15:00 +3°C° 0 mm 10 mps 739 mmHg 43%
    16:00 +2°C° 0 mm 9 mps 739 mmHg 46%
    17:00 +2°C° 0 mm 8 mps 739 mmHg 49%
    18:00 +2°C° 0 mm 7 mps 739 mmHg 53%
    19:00 +1°C° 0 mm 6 mps 739 mmHg 56%
    20:00 -1°C° 0 mm 6 mps 739 mmHg 59%
    21:00 0°C° 0 mm 5 mps 739 mmHg 62%
    22:00 -2°C° 0 mm 6 mps 739 mmHg 62%
    23:00 -2°C° 0 mm 6 mps 739 mmHg 63%

    25 March, Monday

    Time Temperature Precipitation Wind Pressure Humidity
    00:00 -2°C° 0 mm 6 mps 739 mmHg 63%
    01:00 -3°C° 0 mm 6 mps 739 mmHg 64%
    02:00 -3°C° 0 mm 6 mps 739 mmHg 64%
    03:00 -3°C° 0 mm 6 mps 739 mmHg 65%
    04:00 -3°C° 0 mm 6 mps 739 mmHg 66%
    05:00 -2°C° 0 mm 5 mps 739 mmHg 66%
    06:00 -4°C° 0 mm 5 mps 739 mmHg 67%
    07:00 -2°C° 0 mm 5 mps 739 mmHg 63%
    08:00 -1°C° 0 mm 5 mps 739 mmHg 59%
    09:00 -1°C° 0 mm 5 mps 739 mmHg 56%
    10:00 0°C° 0 mm 5 mps 738 mmHg 51%
    11:00 +2°C° 0 mm 6 mps 738 mmHg 46%
    12:00 +3°C° 0 mm 6 mps 737 mmHg 42%
    13:00 +3°C° 0 mm 6 mps 737 mmHg 44%
    14:00 +3°C° 0 mm 6 mps 736 mmHg 45%
    15:00 +4°C° 0 mm 6 mps 735 mmHg 47%
    16:00 +3°C° 0 mm 5 mps 735 mmHg 52%
    17:00 +4°C° 0 mm 4 mps 734 mmHg 57%
    18:00 +3°C° 0 mm 4 mps 734 mmHg 61%
    19:00 +3°C° 0.2 mm 4 mps 733 mmHg 67%
    20:00 +1°C° 0.2 mm 4 mps 733 mmHg 73%
    21:00 +1°C° 0.2 mm 4 mps 732 mmHg 78%
    22:00 +1°C° 0 mm 4 mps 732 mmHg 80%
    23:00 0°C° 0 mm 4 mps 731 mmHg 81%
    Show more